Theta_e
326 329 331 327 327 328 330 330 332 344 344 343 343 341 339 340 338 344 342 343 344 345 346 346 346 347 347 348 347 347 347 346 345 346 346 347 347 344 346 348 347 344 346 345
326 330 325 326 326 328 329 328 332 343 339 342 339 337 336 336 337 338 342 340 343 343 345 345 346 347 346 347 348 347 347 347 346 345 345 345 346 346 343 346 347 346 347 347
326 328 323 324 325 326 326 324 334 345 339 336 333 335 335 333 339 339 340 343 342 340 338 341 342 346 346 346 347 347 347 347 346 346 345 346 346 347 344 346 347 348 347 347
323 322 324 324 324 324 326 323 335 340 338 343 332 340 332 334 342 345 346 347 346 342 335 336 337 343 346 346 346 347 347 347 346 347 347 347 348 347 345 344 344 346 347 348
323 324 325 323 323 324 324 324 337 333 331 331 334 335 332 336 343 342 342 338 345 346 339 337 338 342 346 347 347 341 340 346 344 347 347 346 347 347 347 347 348 344 347 347
321 322 322 321 323 322 322 319 318 323 324 327 334 330 331 338 341 341 345 335 337 349 346 334 337 342 343 344 348 348 346 346 346 343 339 344 347 346 347 347 348 347 342 346
320 321 321 323 323 320 318 317 318 321 327 325 333 332 329 333 338 339 344 339 348 346 345 338 346 348 347 343 342 348 348 347 346 338 335 338 345 346 347 346 346 345 342 343
320 323 321 321 321 321 319 318 318 323 323 329 337 338 338 337 342 342 345 348 347 342 341 343 349 349 349 350 350 344 348 349 347 345 335 338 345 346 347 346 348 349 349 348
318 321 320 321 321 320 320 319 318 330 331 334 337 338 336 338 347 348 348 349 352 350 347 347 342 341 339 346 348 346 344 345 347 348 348 347 349 350 353 353 353 350 348 347
319 321 320 327 326 327 321 321 330 327 337 340 338 342 338 343 347 346 346 347 350 349 343 338 335 330 329 328 332 340 345 347 347 349 350 348 348 349 349 349 349 349 350 351
315 317 319 328 330 329 331 331 327 326 329 335 335 334 335 342 344 344 343 345 346 343 339 334 332 331 330 329 326 323 325 327 331 334 337 338 340 341 342 342 343 345 347 347
315 316 329 333 331 329 330 331 326 327 333 332 330 331 336 337 342 342 342 343 342 339 335 333 332 331 330 329 326 324 325 325 324 325 326 325 324 325 327 331 335 338 339 342
316 322 332 333 329 329 334 333 327 325 327 333 335 335 336 337 339 341 340 341 340 337 335 333 332 331 330 328 325 324 323 321 318 317 317 317 318 319 321 324 326 325 327 331
323 321 329 333 331 330 334 334 331 329 334 333 335 335 339 336 339 338 338 338 337 335 334 333 332 331 329 328 326 325 322 317 317 316 317 318 318 319 318 319 323 327 327 327
325 329 331 332 333 331 332 334 333 333 330 333 331 335 332 337 334 337 338 337 336 335 333 331 330 329 329 327 326 321 318 317 315 317 318 319 320 319 319 319 319 321 324 327
325 332 331 334 334 334 334 333 333 333 334 331 332 332 330 335 335 336 336 336 335 335 332 330 329 329 328 326 321 320 319 318 316 318 320 321 320 321 321 321 320 320 319 322
327 329 329 334 335 332 334 333 332 332 333 332 334 331 333 335 333 335 334 335 335 335 331 329 329 327 324 321 320 320 317 314 316 319 320 321 321 321 321 321 321 321 321 320
329 329 328 334 330 337 330 327 330 332 333 331 335 335 335 334 335 334 336 334 334 334 330 329 327 325 322 320 318 316 313 313 316 319 320 320 320 321 321 322 322 322 322 323
324 326 330 333 332 329 329 332 332 332 331 331 333 331 332 332 333 330 334 334 334 332 329 328 325 323 322 320 319 314 310 313 317 319 320 320 321 321 322 322 322 322 323 324
321 319 326 326 334 335 329 326 328 327 331 329 332 330 330 332 333 328 332 333 331 329 328 325 323 322 321 320 316 310 311 314 316 317 319 321 321 321 321 322 322 322 323 324
325 325 326 326 327 326 324 328 327 331 331 330 333 331 330 328 330 331 329 328 328 327 325 323 322 322 321 317 311 310 310 312 314 317 320 321 319 320 321 322 323 324 325 325
326 327 327 324 328 332 329 331 330 327 327 331 332 330 329 329 329 329 328 328 326 325 323 323 322 321 318 313 310 309 312 315 316 317 319 320 319 319 319 320 322 322 324 324
325 322 326 326 326 324 331 330 331 330 330 331 331 329 330 328 328 328 327 326 324 323 323 322 321 319 315 311 309 309 313 316 318 318 318 318 318 319 319 320 321 322 323 324
323 326 328 328 328 328 329 330 330 331 332 332 332 330 330 328 327 326 325 324 323 323 322 321 319 316 311 310 307 308 309 309 315 316 317 317 318 319 319 319 321 322 323 323
322 326 325 326 327 329 329 329 330 331 331 331 329 328 327 325 325 325 324 323 323 322 321 319 316 312 312 310 307 306 307 306 308 314 316 317 318 318 318 319 320 321 320 320
323 322 328 328 330 329 330 330 329 329 329 328 327 326 325 324 324 324 323 322 321 320 319 316 313 312 311 308 305 304 305 306 306 308 309 312 316 317 317 317 317 318 318 318
Wind_Speed
3 6 2 2 2 3 3 4 4 1 3 6 4 5 5 3 3 13 11 11 9 6 7 17 21 22 21 21 15 11 13 12 13 15 16 15 14 14 14 12 10 10 11 9
5 5 4 3 3 2 1 4 1 5 5 6 2 3 3 3 3 11 9 11 2 4 3 6 9 17 17 19 21 16 15 14 14 15 15 15 13 13 16 15 14 14 14 13
5 4 3 4 3 3 3 4 5 6 6 7 3 5 4 2 5 10 11 4 4 5 5 6 3 6 11 15 18 21 11 12 16 17 17 17 15 15 17 18 17 17 16 15
4 4 3 5 4 6 4 4 7 12 4 4 3 3 4 4 7 6 9 3 3 6 8 4 2 6 8 6 9 15 12 17 16 20 19 21 20 20 17 19 21 21 20 18
6 3 2 4 5 6 7 5 7 3 6 5 4 3 4 2 4 5 7 4 9 8 11 12 5 5 5 5 8 15 12 15 9 15 18 21 25 23 23 24 23 22 22 21
6 4 4 7 2 7 7 7 9 5 4 2 1 3 4 4 5 5 9 8 3 15 9 3 5 4 3 6 5 14 19 14 10 11 6 15 24 25 27 27 27 27 26 24
5 6 4 3 3 2 6 6 3 3 3 5 3 3 7 5 5 6 13 16 18 15 12 7 5 1 2 5 6 10 15 15 18 8 7 18 19 23 27 29 30 28 24 24
4 4 4 2 7 7 5 8 6 6 4 4 3 5 4 4 8 9 12 12 10 15 15 10 11 9 8 5 2 9 9 19 20 19 11 15 18 21 22 18 16 17 22 23
5 5 4 2 2 5 5 3 4 8 4 2 2 4 6 3 1 3 8 4 12 18 17 17 14 13 15 16 15 9 7 5 6 21 25 27 22 18 18 18 16 15 14 15
5 1 2 2 2 9 2 6 4 3 5 4 4 4 5 9 11 8 9 11 16 19 19 18 15 13 13 13 13 10 8 5 4 4 6 7 8 9 10 13 14 13 15 13
5 3 6 2 5 2 1 3 8 6 3 5 1 6 6 14 16 15 16 22 22 22 23 20 16 14 12 10 8 6 4 2 2 4 6 8 11 13 13 14 15 15 15 16
6 5 1 4 2 3 1 5 5 5 4 1 2 6 6 7 16 22 23 26 24 22 20 19 16 13 9 6 5 5 5 3 3 4 8 11 14 17 19 19 19 18 17 17
9 1 3 8 7 2 3 3 4 7 4 6 5 5 3 9 14 23 25 28 27 24 20 16 13 9 5 3 4 6 6 8 9 9 9 11 13 16 18 19 19 21 22 21
8 4 8 9 7 5 4 5 4 5 4 5 6 2 4 6 12 16 21 28 27 24 20 16 11 8 3 1 4 7 9 10 11 13 15 16 15 15 16 17 17 18 19 20
5 4 2 5 3 1 3 5 6 3 3 5 3 7 9 15 13 24 31 29 27 25 21 16 12 8 5 1 7 10 11 13 15 17 18 17 16 16 17 18 19 19 20 19
2 2 4 5 6 7 3 1 5 2 2 6 3 7 6 21 22 21 29 30 29 26 20 16 12 8 2 3 7 9 12 15 17 16 17 16 17 17 17 17 17 18 19 20
3 6 3 3 3 4 5 6 7 4 4 5 5 5 4 5 19 28 33 35 33 29 23 17 11 5 1 6 9 11 14 16 16 16 15 16 18 18 20 20 17 16 17 17
6 5 3 3 3 3 6 4 6 6 3 8 3 3 6 6 12 23 33 36 33 29 23 15 7 2 6 10 13 15 18 17 17 17 17 17 19 20 20 18 16 16 19 19
2 4 4 5 4 4 2 3 5 6 8 7 7 5 5 10 12 7 24 29 29 27 20 12 6 2 6 10 13 15 17 17 16 17 18 18 20 20 19 19 17 18 19 19
4 5 4 3 4 4 7 2 2 5 6 7 13 13 17 18 4 4 21 23 25 20 13 8 4 3 6 9 13 15 16 16 16 16 16 16 18 20 19 19 18 18 19 20
3 3 4 2 2 6 5 2 9 5 7 2 8 18 23 5 5 20 21 23 20 15 11 6 4 4 7 11 14 16 16 16 15 14 13 13 17 17 18 19 17 19 19 19
6 5 3 3 3 4 2 3 6 5 2 4 10 19 16 13 19 26 24 21 18 15 11 7 3 5 10 12 14 15 16 15 13 12 13 13 15 15 16 18 16 19 20 21
1 5 5 6 5 3 3 4 6 4 5 10 15 19 16 21 23 22 22 19 16 12 9 5 3 8 11 12 12 12 12 14 12 12 13 13 14 13 13 16 16 16 15 18
3 2 3 3 2 4 2 6 6 8 10 13 15 18 11 12 18 18 17 17 15 11 7 4 6 9 9 9 9 9 12 13 10 9 10 12 12 11 13 14 14 12 14 16
3 1 3 2 4 2 6 8 12 16 17 20 19 14 8 5 10 11 15 15 12 9 7 6 8 8 8 7 8 9 12 13 11 8 9 10 10 11 11 13 12 10 11 14
4 5 4 5 10 6 7 16 17 20 21 19 16 15 10 6 6 13 14 12 10 8 7 7 6 6 7 7 8 9 10 11 11 9 11 11 9 10 12 11 11 12 11 14
Wind_Direction
26 49 307 214 180 176 209 215 176 87 22 77 56 67 18 319 208 226 227 225 243 282 268 230 239 241 239 237 233 221 223 223 226 226 233 241 258 250 250 263 263 247 253 265
16 276 168 180 154 175 290 302 160 76 14 84 110 52 316 289 265 242 269 270 195 215 191 190 218 229 238 239 239 235 234 238 240 238 246 247 258 270 262 264 263 264 262 259
178 214 347 3 323 49 261 209 187 140 108 54 92 348 346 309 341 289 289 305 305 74 168 190 218 244 232 233 236 244 246 246 247 250 248 250 258 266 263 261 268 274 274 267
246 306 263 300 258 163 323 222 130 151 103 167 39 261 302 347 332 317 323 28 136 133 99 81 179 263 275 269 256 263 253 246 253 249 248 252 261 270 276 278 279 278 271 272
237 196 133 295 207 182 247 53 110 134 93 96 355 80 256 343 314 276 288 199 152 99 100 59 51 236 293 316 204 199 206 230 247 251 263 259 264 274 276 278 278 280 277 275
228 274 227 212 280 163 160 78 46 48 86 41 122 124 268 200 219 287 315 307 180 28 87 102 20 3 285 293 247 235 225 231 218 240 292 279 266 270 273 275 274 277 276 272
322 263 274 184 314 93 87 70 19 25 17 219 111 77 248 244 239 250 280 359 6 37 93 120 41 327 267 273 275 253 227 236 224 266 293 284 276 272 277 282 276 269 272 269
152 303 185 175 193 193 166 157 156 182 188 243 128 234 263 213 246 253 258 350 42 84 118 105 81 75 60 46 164 217 218 221 224 228 218 266 298 263 277 287 291 276 270 264
158 273 300 261 192 123 180 127 161 104 15 62 238 289 316 247 108 183 266 76 107 117 128 117 100 86 72 74 75 97 128 134 209 227 242 263 273 266 279 286 289 282 288 283
196 309 302 287 52 51 137 146 79 20 129 228 286 262 232 175 192 194 181 181 150 142 126 120 116 97 82 72 74 80 82 100 169 208 221 248 255 261 274 285 291 295 295 282
134 109 285 24 23 211 128 80 55 108 85 153 242 263 227 187 185 181 187 181 166 157 147 140 129 122 111 95 82 78 86 119 194 226 249 262 270 277 283 287 289 287 283 282
180 123 121 235 233 180 350 155 133 113 207 130 154 271 326 189 183 179 185 185 176 167 161 149 135 129 119 91 65 57 59 42 8 318 295 287 286 285 282 281 283 285 282 279
180 194 70 347 348 20 56 28 89 101 95 186 147 262 339 172 176 188 180 187 181 172 169 162 149 154 144 80 40 28 12 354 345 337 324 312 305 300 296 289 286 281 280 279
109 104 161 190 202 141 172 175 158 114 124 175 224 223 232 192 181 182 187 189 185 181 178 172 171 177 180 56 13 359 347 347 343 336 331 326 320 311 305 299 294 288 285 282
108 125 108 26 37 71 154 173 182 161 139 160 247 209 200 194 191 187 187 187 186 186 185 186 183 190 189 337 352 346 342 343 342 337 337 336 335 328 318 307 298 292 286 284
70 145 122 33 12 29 23 66 193 229 155 290 221 269 209 198 187 179 185 186 189 192 193 191 188 187 207 349 346 342 338 338 339 341 341 342 339 336 331 325 317 311 296 286
82 137 103 166 12 9 334 223 193 204 183 168 215 246 159 141 178 186 188 194 195 196 198 196 192 199 307 335 336 332 334 337 336 335 334 334 332 331 333 331 326 324 322 317
127 105 70 144 85 184 234 252 206 184 226 205 188 193 199 176 191 200 199 196 197 195 193 193 200 260 331 333 334 335 332 331 331 328 329 331 330 330 329 333 338 335 331 331
53 107 89 143 198 266 74 197 151 159 268 194 180 139 158 150 152 166 193 202 200 193 186 185 194 266 330 330 329 331 329 327 327 328 330 331 330 331 337 342 343 338 335 337
53 72 120 157 132 188 233 245 199 120 294 205 175 160 152 145 142 226 190 195 182 178 178 184 201 298 317 327 330 329 329 323 321 325 331 334 336 342 342 345 344 340 334 330
28 18 136 120 146 289 247 165 137 115 240 287 180 165 158 154 206 162 165 166 174 175 179 191 230 286 323 331 334 336 330 321 316 322 331 342 343 348 346 344 345 341 337 332
172 140 171 84 82 279 166 95 150 219 207 204 166 160 148 135 139 153 160 165 174 182 184 200 231 314 330 333 339 335 325 325 330 333 340 349 349 340 342 346 347 342 343 342
208 175 180 169 208 264 254 235 255 180 172 155 159 156 143 134 147 158 164 171 176 181 188 201 281 320 327 329 332 331 333 336 344 354 355 354 347 341 336 339 339 342 349 359
343 173 104 84 293 308 313 157 153 150 139 140 148 145 143 139 157 167 170 176 182 186 200 233 293 313 321 325 324 332 340 337 345 358 0 353 345 341 338 333 337 333 331 347
213 79 128 308 280 296 203 168 145 139 138 138 139 134 124 124 172 186 185 190 192 200 215 269 296 311 321 327 325 329 338 338 336 345 341 335 332 334 336 339 340 330 332 334
191 178 155 221 217 197 197 176 161 152 149 147 146 151 145 158 184 192 191 194 203 217 255 277 293 301 314 323 322 327 339 345 356 356 340 328 317 320 324 323 323 323 331 337